Weather History for KANW - February, 2012

Change the Weather History Date:

Saturday, February 18, 2012

  Actual Average Record
Temperature  
Mean Temperature 28 °F -  
Max Temperature 43 °F 38 °F 62 °F (2004)
Min Temperature 14 °F 19 °F -18 °F (2006)
Degree Days  
Heating Degree Days 36    
Moisture  
Dew Point 20 °F    
Average Humidity 70    
Maximum Humidity 87    
Minimum Humidity 49    
Precipitation  
Precipitation 0.00 in - - ()
Sea Level Pressure  
Sea Level Pressure 30.09 in    
Wind  
Wind Speed 9 mph (SSW)    
Max Wind Speed 18 mph    
Max Gust Speed 24 mph    
Visibility 10 miles    
Events      
Averages and records for this station are not official NWS values.
T = Trace of Precipitation, MM = Missing Value Source: NWS Daily Summary

Daily Weather History Graph

Daily Weather History Graph

Search for Another Location

Airport or City:

Trip Planner

Search our weather history database for the weather conditions in past years. The results will help you decide how hot, cold, wet, or windy it might be!

Date:

Astronomy

Feb. 18, 2012 Rise Set
Actual Time 7:33 AM CST 6:15 PM CST
Civil Twilight 7:04 AM CST 6:44 PM CST
Nautical Twilight 6:31 AM CST 7:16 PM CST
Astronomical Twilight 5:58 AM CST 7:49 PM CST
Moon 5:17 AM CST (2/18) 3:11 PM CST (2/18)
Length of Visible Light 11h 39m
Length of Day
10h 42m
Waning Crescent, 11% of the Moon is Illuminated
Feb 18
Waning Crescent
Feb 21
New
Feb 29
First Quarter
Mar 8
Full
Mar 14
Last Quarter

Hourly Weather History & Observations

Time (CST) Temp. Windchill Dew Point Humidity Pressure Visibility Wind Dir Wind Speed Gust Speed Precip Events Conditions
12:15 AM 18.5 °F 10.4 °F 13.6 °F 81% 30.19 in 10.0 mi SSW 5.8 mph - N/A   Clear
12:35 AM 18.3 °F 11.5 °F 13.5 °F 81% 30.19 in 10.0 mi SSW 4.6 mph - N/A   Clear
12:55 AM 19.2 °F 12.5 °F 13.6 °F 79% 30.19 in 10.0 mi SW 4.6 mph - N/A   Clear
1:15 AM 18.0 °F 11.1 °F 13.3 °F 82% 30.19 in 10.0 mi SW 4.6 mph - N/A   Clear
1:35 AM 18.5 °F 11.7 °F 13.1 °F 79% 30.19 in 10.0 mi SW 4.6 mph - N/A   Clear
1:55 AM 18.9 °F 13.7 °F 13.6 °F 80% 30.19 in 10.0 mi SW 3.5 mph - N/A   Clear
2:15 AM 16.5 °F - 11.5 °F 81% 30.19 in 10.0 mi Calm Calm - N/A   Clear
2:35 AM 18.1 °F 12.9 °F 12.7 °F 79% 30.18 in 10.0 mi SW 3.5 mph - N/A   Clear
2:55 AM 18.9 °F 12.1 °F 13.5 °F 79% 30.17 in 10.0 mi WSW 4.6 mph - N/A   Clear
3:15 AM 15.8 °F 10.2 °F 11.3 °F 82% 30.17 in 10.0 mi SW 3.5 mph - N/A   Clear
3:35 AM 16.5 °F 11.0 °F 11.8 °F 82% 30.16 in 10.0 mi SW 3.5 mph - N/A   Clear
3:55 AM 16.5 °F 9.4 °F 12.0 °F 82% 30.16 in 10.0 mi WSW 4.6 mph - N/A   Clear
4:15 AM 16.7 °F 11.2 °F 12.4 °F 83% 30.15 in 10.0 mi SSW 3.5 mph - N/A   Clear
4:35 AM 17.1 °F 11.7 °F 12.4 °F 82% 30.15 in 10.0 mi SSW 3.5 mph - N/A   Clear
4:55 AM 17.1 °F 8.7 °F 12.4 °F 82% 30.15 in 10.0 mi SSW 5.8 mph - N/A   Clear
5:15 AM 16.5 °F 9.4 °F 11.7 °F 81% 30.15 in 10.0 mi SSW 4.6 mph - N/A   Clear
5:35 AM 15.3 °F 7.9 °F 11.1 °F 84% 30.15 in 10.0 mi South 4.6 mph - N/A   Clear
5:55 AM 16.5 °F 6.9 °F 12.2 °F 83% 30.15 in 10.0 mi South 6.9 mph - N/A   Clear
6:15 AM 16.3 °F 7.8 °F 12.0 °F 83% 30.15 in 10.0 mi South 5.8 mph - N/A   Clear
6:35 AM 14.9 °F 5.0 °F 11.3 °F 86% 30.14 in 10.0 mi South 6.9 mph - N/A   Clear
6:55 AM 14.9 °F 6.1 °F 11.7 °F 87% 30.14 in 10.0 mi South 5.8 mph - N/A   Clear
7:15 AM 16.2 °F 7.6 °F 12.6 °F 86% 30.14 in 10.0 mi SSE 5.8 mph - N/A   Clear
7:35 AM 16.9 °F 7.4 °F 13.1 °F 85% 30.14 in 10.0 mi SSE 6.9 mph - N/A   Clear
7:55 AM 18.0 °F 6.9 °F 14.2 °F 85% 30.13 in 10.0 mi SSE 9.2 mph - N/A   Clear
8:15 AM 20.8 °F 11.2 °F 16.9 °F 85% 30.13 in 10.0 mi South 8.1 mph - N/A   Clear
8:35 AM 26.1 °F 16.2 °F 20.8 °F 81% 30.13 in 10.0 mi South 10.4 mph - N/A   Clear
8:55 AM 27.7 °F 17.6 °F 21.9 °F 79% 30.13 in 10.0 mi South 11.5 mph - N/A   Clear
9:15 AM 29.3 °F 18.2 °F 23.0 °F 77% 30.12 in 10.0 mi South 15.0 mph - N/A   Clear
9:35 AM 30.4 °F 20.0 °F 23.7 °F 76% 30.12 in 10.0 mi South 13.8 mph - N/A   Clear
9:55 AM 32.0 °F 21.6 °F 25.0 °F 75% 30.12 in 10.0 mi South 15.0 mph - N/A   Clear
10:15 AM 33.8 °F 22.8 °F 25.0 °F 70% 30.11 in 10.0 mi South 18.4 mph - N/A   Clear
10:35 AM 35.2 °F 25.0 °F 24.6 °F 65% 30.11 in 10.0 mi South 17.3 mph - N/A   Clear
10:55 AM 36.1 °F 26.5 °F 24.4 °F 63% 30.10 in 10.0 mi South 16.1 mph - N/A   Scattered Clouds
11:15 AM 37.4 °F 28.5 °F 25.3 °F 62% 30.10 in 10.0 mi South 15.0 mph - N/A   Clear
11:35 AM 38.3 °F 28.7 °F 24.8 °F 58% 30.09 in 10.0 mi South 18.4 mph - N/A   Clear
11:55 AM 39.4 °F 31.1 °F 25.3 °F 57% 30.08 in 10.0 mi South 15.0 mph - N/A   Scattered Clouds
12:15 PM 40.1 °F 31.3 °F 25.0 °F 55% 30.08 in 10.0 mi South 17.3 mph 20.7 mph N/A   Clear
12:35 PM 41.2 °F 32.4 °F 25.0 °F 53% 30.06 in 10.0 mi South 18.4 mph - N/A   Clear
12:55 PM 41.9 °F 33.4 °F 25.0 °F 51% 30.04 in 10.0 mi South 18.4 mph - N/A   Clear
1:15 PM 42.1 °F 33.9 °F 24.8 °F 50% 30.03 in 10.0 mi SSW 17.3 mph 23.0 mph N/A   Clear
1:35 PM 42.4 °F 34.4 °F 25.5 °F 51% 30.02 in 10.0 mi South 17.3 mph 23.0 mph N/A   Clear
1:55 PM 42.3 °F 33.8 °F 25.3 °F 51% 30.01 in 10.0 mi South 18.4 mph 24.2 mph N/A   Clear
2:15 PM 43.0 °F 35.4 °F 25.7 °F 51% 30.00 in 10.0 mi SSW 16.1 mph - N/A   Clear
2:35 PM 43.9 °F 36.2 °F 25.7 °F 49% 29.99 in 10.0 mi South 17.3 mph - N/A   Clear
2:55 PM 43.3 °F 35.2 °F 25.5 °F 49% 29.99 in 10.0 mi South 18.4 mph 23.0 mph N/A   Clear
3:15 PM 43.0 °F 34.8 °F 25.7 °F 51% 29.98 in 10.0 mi South 18.4 mph - N/A   Clear
3:35 PM 43.0 °F 34.8 °F 26.1 °F 51% 29.98 in 10.0 mi South 18.4 mph 23.0 mph N/A   Clear
3:55 PM 42.8 °F 35.1 °F 26.6 °F 53% 29.98 in 10.0 mi SSW 16.1 mph 24.2 mph N/A   Clear
4:15 PM 42.8 °F 34.8 °F 26.8 °F 53% 29.97 in 10.0 mi South 17.3 mph 21.9 mph N/A   Clear
4:35 PM 41.7 °F 33.7 °F 27.0 °F 56% 29.97 in 10.0 mi South 16.1 mph 23.0 mph N/A   Clear
4:55 PM 41.0 °F 33.1 °F 27.0 °F 57% 29.97 in 10.0 mi South 15.0 mph - N/A   Clear
5:15 PM 40.1 °F 31.6 °F 27.1 °F 60% 29.96 in 10.0 mi South 16.1 mph - N/A   Clear
5:35 PM 38.7 °F 30.1 °F 27.1 °F 63% 29.96 in 10.0 mi South 15.0 mph - N/A   Clear
5:55 PM 37.4 °F 28.9 °F 27.0 °F 66% 29.96 in 10.0 mi South 13.8 mph - N/A   Clear
6:15 PM 35.6 °F 27.1 °F 26.6 °F 70% 29.96 in 10.0 mi South 12.7 mph - N/A   Clear
6:35 PM 34.7 °F 25.5 °F 26.4 °F 72% 29.96 in 10.0 mi South 13.8 mph - N/A   Clear
6:55 PM 33.8 °F 24.8 °F 26.2 °F 74% 29.96 in 10.0 mi South 12.7 mph - N/A   Clear
7:15 PM 32.5 °F 23.7 °F 26.1 °F 77% 29.96 in 10.0 mi South 11.5 mph - N/A   Clear
7:35 PM 32.2 °F 22.7 °F 25.9 °F 78% 29.96 in 10.0 mi South 12.7 mph - N/A   Clear
7:55 PM 32.2 °F 23.2 °F 25.7 °F 77% 29.96 in 10.0 mi South 11.5 mph - N/A   Clear
8:15 PM 32.2 °F 21.8 °F 25.5 °F 76% 29.96 in 10.0 mi South 15.0 mph - N/A   Clear
8:35 PM 32.0 °F 21.6 °F 25.5 °F 77% 29.96 in 10.0 mi South 15.0 mph - N/A   Clear
8:55 PM 32.0 °F 22.1 °F 25.3 °F 76% 29.96 in 10.0 mi South 13.8 mph - N/A   Clear
9:15 PM 31.6 °F 21.2 °F 25.3 °F 78% 29.96 in 10.0 mi South 15.0 mph - N/A   Clear
9:35 PM 31.1 °F 20.5 °F 25.3 °F 79% 29.96 in 10.0 mi South 15.0 mph - N/A   Clear
9:55 PM 30.9 °F 19.4 °F 25.3 °F 80% 29.95 in 10.0 mi South 17.3 mph - N/A   Clear
10:15 PM 30.2 °F 18.5 °F 24.8 °F 80% 29.95 in 10.0 mi South 17.3 mph - N/A   Clear
10:35 PM 29.8 °F 17.7 °F 24.6 °F 81% 29.95 in 10.0 mi South 18.4 mph - N/A   Clear
10:55 PM 29.7 °F 17.8 °F 24.6 °F 81% 29.95 in 10.0 mi South 17.3 mph - N/A   Clear
11:15 PM 29.3 °F 17.3 °F 24.3 °F 81% 29.95 in 10.0 mi South 17.3 mph - N/A   Clear
11:35 PM 29.1 °F 17.1 °F 23.9 °F 81% 29.94 in 10.0 mi South 17.3 mph - N/A   Clear
11:55 PM 28.9 °F 16.9 °F 23.4 °F 80% 29.94 in 10.0 mi South 17.3 mph - N/A   Clear